Weather History for Trinity Center, CA

Change the Weather History Date:

Saturday, March 9, 2013

  Actual Average (KMHS) Record (KMHS)
Temperature  
Mean Temperature 45 °F 41 °F  
Max Temperature 62 °F 53 °F 71 °F (2005)
Min Temperature 28 °F 30 °F 12 °F (1917)
Degree Days  
Heating Degree Days 20 24  
Month to date heating degree days 219  
Since 1 July heating degree days 4194  
Cooling Degree Days 0 0  
Month to date cooling degree days 0  
Year to date cooling degree days 0  
Moisture  
Dew Point 27 °F    
Average Humidity 64    
Maximum Humidity 93    
Minimum Humidity 16    
Precipitation  
Precipitation 0.00 in 0.23 in 3.90 in (1989)
Month to date precipitation 2.19  
Year to date precipitation 16.48  
Sea Level Pressure  
Sea Level Pressure 30.34 in    
Wind  
Wind Speed 3 mph (WSW)    
Max Wind Speed 9 mph    
Max Gust Speed -    
Visibility 10 miles    
Events      
T = Trace of Precipitation, MM = Missing Value Source: NWS Daily Summary

Daily Weather History Graph

Daily Weather History Graph

Search for Another Location

Airport:

Trip Planner

Search our weather history database for the weather conditions in past years. The results will help you decide how hot, cold, wet, or windy it might be!

Date:

Astronomy

Mar. 09, 2013 Rise Set
Actual Time 6:31 AM PST 6:11 PM PST
Civil Twilight 6:04 AM PST 6:38 PM PST
Nautical Twilight 5:32 AM PST 7:10 PM PST
Astronomical Twilight 5:00 AM PST 7:42 PM PST
Moon 4:59 AM PST (3/9) 4:18 PM PST (3/9)
Length of Visible Light 12h 34m
Length of Day
11h 39m
Waning Crescent, 5% of the Moon is Illuminated
Mar 9
Waning Crescent
Mar 11
New
Mar 19
First Quarter
Mar 27
Full
Apr 2
Last Quarter

Hourly Weather History & Observations

Time (PST) Temp. Windchill Dew Point Humidity Pressure Visibility Wind Dir Wind Speed Gust Speed Precip Events Conditions
12:15 AM 32.0 °F - 28.4 °F 87% 30.14 in 9.0 mi Calm Calm - N/A   Clear
12:35 AM 32.0 °F - 28.4 °F 87% 30.15 in 9.0 mi Calm Calm - N/A   Clear
12:55 AM 32.0 °F - 28.4 °F 87% 30.16 in 7.0 mi Calm Calm - N/A   Clear
1:15 AM 32.0 °F 28.7 °F 26.6 °F 80% 30.17 in 7.0 mi West 3.5 mph - N/A   Clear
1:35 AM 32.0 °F 28.7 °F 26.6 °F 80% 30.18 in 5.0 mi West 3.5 mph - N/A   Clear
1:55 AM 32.0 °F - 26.6 °F 80% 30.19 in 10.0 mi Calm Calm - N/A   Clear
2:15 AM 30.2 °F - 26.6 °F 86% 30.20 in 10.0 mi Calm Calm - N/A   Clear
2:35 AM 28.4 °F 23.3 °F 26.6 °F 93% 30.21 in 9.0 mi West 4.6 mph - N/A   Clear
2:55 AM 30.2 °F 25.4 °F 26.6 °F 86% 30.21 in 10.0 mi West 4.6 mph - N/A   Clear
3:15 AM 30.2 °F 26.7 °F 26.6 °F 86% 30.21 in 10.0 mi West 3.5 mph - N/A   Clear
3:35 AM 28.4 °F 23.3 °F 26.6 °F 93% 30.22 in 10.0 mi West 4.6 mph - N/A   Clear
3:55 AM 28.4 °F 23.3 °F 26.6 °F 93% 30.23 in 10.0 mi WSW 4.6 mph - N/A   Clear
4:15 AM 28.4 °F 24.6 °F 26.6 °F 93% 30.24 in 10.0 mi West 3.5 mph - N/A   Clear
4:35 AM 28.4 °F 23.3 °F 26.6 °F 93% 30.24 in 10.0 mi West 4.6 mph - N/A   Clear
4:55 AM 28.4 °F 23.3 °F 26.6 °F 93% 30.26 in 10.0 mi West 4.6 mph - N/A   Clear
5:10 AM 28.4 °F 24.6 °F 26.6 °F 93% 30.28 in 10.0 mi WSW 3.5 mph - N/A   Clear
5:35 AM 28.4 °F - 26.6 °F 93% 30.30 in 10.0 mi Calm Calm - N/A   Partly Cloudy
5:55 AM 28.4 °F 24.6 °F 26.6 °F 93% 30.31 in 10.0 mi WNW 3.5 mph - N/A   Partly Cloudy
6:15 AM 28.4 °F 23.3 °F 26.6 °F 93% 30.31 in 10.0 mi WNW 4.6 mph - N/A   Clear
6:35 AM 28.4 °F - 26.6 °F 93% 30.32 in 10.0 mi Calm Calm - N/A   Clear
6:55 AM 28.4 °F 24.6 °F 26.6 °F 93% 30.33 in 10.0 mi West 3.5 mph - N/A   Clear
7:15 AM 28.4 °F 24.6 °F 26.6 °F 93% 30.34 in 10.0 mi West 3.5 mph - N/A   Clear
7:35 AM 28.4 °F - 26.6 °F 93% 30.35 in 10.0 mi Calm Calm - N/A   Clear
7:55 AM 32.0 °F - 30.2 °F 93% 30.36 in 10.0 mi Calm Calm - N/A   Clear
8:15 AM 33.8 °F - 32.0 °F 93% 30.36 in 10.0 mi Calm Calm - N/A   Partly Cloudy
8:35 AM 35.6 °F 32.8 °F 32.0 °F 87% 30.36 in 10.0 mi SSE 3.5 mph - N/A   Partly Cloudy
8:55 AM 35.6 °F 31.7 °F 32.0 °F 87% 30.37 in 10.0 mi SSE 4.6 mph - N/A   Clear
9:15 AM 39.2 °F 35.9 °F 32.0 °F 75% 30.37 in 10.0 mi SSE 4.6 mph - N/A   Clear
9:35 AM 41.0 °F 39.0 °F 33.8 °F 76% 30.38 in 10.0 mi ESE 3.5 mph - N/A   Clear
9:55 AM 42.8 °F 40.1 °F 32.0 °F 66% 30.38 in 10.0 mi South 4.6 mph - N/A   Clear
10:15 AM 44.6 °F 41.4 °F 32.0 °F 61% 30.38 in 10.0 mi SE 5.8 mph - N/A   Clear
10:35 AM 46.4 °F 43.5 °F 32.0 °F 57% 30.37 in 10.0 mi SE 5.8 mph - N/A   Clear
10:55 AM 46.4 °F 42.9 °F 32.0 °F 57% 30.36 in 10.0 mi SSE 6.9 mph - N/A   Clear
11:15 AM 50.0 °F - 28.4 °F 43% 30.36 in 10.0 mi Calm Calm - N/A   Clear
11:35 AM 51.8 °F - 28.4 °F 41% 30.36 in 10.0 mi SE 4.6 mph - N/A   Clear
11:55 AM 53.6 °F - 32.0 °F 44% 30.36 in 10.0 mi SE 5.8 mph - N/A   Clear
12:15 PM 55.4 °F - 28.4 °F 36% 30.36 in 10.0 mi SSE 6.9 mph - N/A   Clear
12:35 PM 55.4 °F - 28.4 °F 36% 30.35 in 10.0 mi SSE 6.9 mph - N/A   Clear
12:55 PM 57.2 °F - 32.0 °F 38% 30.34 in 10.0 mi SSE 8.1 mph - N/A   Clear
1:15 PM 57.2 °F - 32.0 °F 38% 30.34 in 10.0 mi SSE 9.2 mph - N/A   Clear
1:35 PM 59.0 °F - 26.6 °F 29% 30.33 in 10.0 mi Calm Calm - N/A   Clear
1:55 PM 59.0 °F - 32.0 °F 36% 30.33 in 10.0 mi SSE 9.2 mph - N/A   Clear
2:15 PM 59.0 °F - 32.0 °F 36% 30.34 in 10.0 mi SSE 8.1 mph - N/A   Clear
2:35 PM 60.8 °F - 28.4 °F 29% 30.33 in 10.0 mi SSE 8.1 mph - N/A   Clear
2:55 PM 60.8 °F - 30.2 °F 31% 30.34 in 10.0 mi South 3.5 mph - N/A   Clear
3:15 PM 62.6 °F - 19.4 °F 19% 30.34 in 10.0 mi East 3.5 mph - N/A   Clear
3:35 PM 60.8 °F - 19.4 °F 20% 30.34 in 10.0 mi ENE 5.8 mph - N/A   Clear
3:55 PM 62.6 °F - 19.4 °F 19% 30.34 in 10.0 mi NNE 5.8 mph - N/A   Clear
4:15 PM 62.6 °F - 19.4 °F 19% 30.34 in 10.0 mi North 6.9 mph - N/A   Clear
4:35 PM 62.6 °F - 15.8 °F 16% 30.35 in 10.0 mi North 4.6 mph - N/A   Clear
4:55 PM 59.0 °F - 15.8 °F 19% 30.35 in 10.0 mi North 8.1 mph - N/A   Clear
5:15 PM 57.2 °F - 17.6 °F 21% 30.36 in 10.0 mi NNW 5.8 mph - N/A   Clear
5:35 PM 55.4 °F - 21.2 °F 26% 30.36 in 10.0 mi NW 5.8 mph - N/A   Clear
5:55 PM 51.8 °F - 24.8 °F 35% 30.37 in 10.0 mi West 5.8 mph - N/A   Clear
6:15 PM 50.0 °F - 26.6 °F 40% 30.38 in 10.0 mi Calm Calm - N/A   Clear
6:35 PM 48.2 °F - 28.4 °F 46% 30.39 in 10.0 mi Calm Calm - N/A   Clear
6:55 PM 46.4 °F - 24.8 °F 43% 30.40 in 10.0 mi Calm Calm - N/A   Clear
7:15 PM 42.8 °F - 24.8 °F 49% 30.41 in 10.0 mi Calm Calm - N/A   Clear
7:35 PM 41.0 °F 39.0 °F 26.6 °F 57% 30.41 in 10.0 mi SSW 3.5 mph - N/A   Clear
7:55 PM 39.2 °F 37.0 °F 26.6 °F 61% 30.42 in 10.0 mi West 3.5 mph - N/A   Clear
8:15 PM 37.4 °F 34.9 °F 26.6 °F 65% 30.43 in 10.0 mi WSW 3.5 mph - N/A   Clear
8:35 PM 35.6 °F - 26.6 °F 70% 30.43 in 10.0 mi Calm Calm - N/A   Clear
8:55 PM 37.4 °F 32.8 °F 26.6 °F 65% 30.44 in 10.0 mi West 5.8 mph - N/A   Clear
9:15 PM 37.4 °F 34.9 °F 24.8 °F 60% 30.45 in 10.0 mi West 3.5 mph - N/A   Clear
9:35 PM 35.6 °F 31.7 °F 24.8 °F 65% 30.46 in 10.0 mi West 4.6 mph - N/A   Clear
9:55 PM 33.8 °F 30.8 °F 26.6 °F 75% 30.47 in 8.0 mi West 3.5 mph - N/A   Clear
10:15 PM 33.8 °F 29.6 °F 24.8 °F 70% 30.47 in 10.0 mi West 4.6 mph - N/A   Clear
10:35 PM 33.8 °F 29.6 °F 24.8 °F 70% 30.47 in 10.0 mi WSW 4.6 mph - N/A   Clear
10:55 PM 32.0 °F 27.5 °F 24.8 °F 75% 30.47 in 10.0 mi WNW 4.6 mph - N/A   Clear
11:15 PM 32.0 °F 27.5 °F 24.8 °F 75% 30.47 in 10.0 mi West 4.6 mph - N/A   Clear
11:35 PM 32.0 °F 27.5 °F 24.8 °F 75% 30.46 in 10.0 mi West 4.6 mph - N/A   Clear
11:55 PM 32.0 °F 26.4 °F 24.8 °F 75% 30.47 in 10.0 mi West 5.8 mph - N/A   Clear